International Virtual Aviation Organisation

Russian Federation and Kazakhstan MCD

 

Карточка аэропорта UAAA

Внимание!
Информация на этой странице в стадии наполнения.
Если вы не увидели какой-то информации, или заметили неточность - пожалуйста сообщите нам!
Спасибо!
Команда RU-STAFF
Название аэропортаАлматы
Название аэропорта (англ.)Almaty
Превышение2238 ft. (682.1 m.)
Координаты43°21.072', 77°1.5960000000001'
Высота перехода600
Эшелон переходаFL070
Коды ответчика3501-3517, 3401-3427
Зона ОрВДАлматы РПИ (UAAA)
Данные METARUAAA 302100Z 17003MPS 2100 FU NSC M02/M06 Q1030 R88/65D NOSIG
Проноз погоды (TAF)UAAA 301700Z 3018/3118 20003G08MPS 3100 BR FU SCT050 BKN100 TX15/3109Z TNM03/3101Z TEMPO 3018/3021 15003MPS 1200 BECMG 3103/3104 02003G08MPS 9999 NSW BECMG 3112/3113 16003MPS 3100 BR FU
NOTAMshow/hide NOTAM
AWOS   TABLE

Информация о ВПП

ВПП Длина ВПП (м.) Покрытие Курс ВПП Частота ILS
05L4500Бетон51109.1
23R4500Бетон231111.3
05R4400Асфальтобетон51110.3
23L4400Асфальтобетон231108.1

Диспетчерские позиции

Позывной Наименование органа УВД Частота
UAAA_APPАлматы-Подход124.8
UAAA_TWRАлматы-Вышка119.4
UAAA_GNDАлматы-Руление121.7
UAAA_R_APPАлматы-Круг120.8



Спутниковое изображение